Location: Central Falls
(41.8900°N, 71.3929°W)
Time: 11:02:07
(UTC+00:00)

A-11 Canister half - Pass Details

Date: 08 December 2023
Orbit: 1526 x 1682 km, 47.3° (Epoch: 20 February)

Event Time Altitude Azimuth Distance (km) Brightness Sun altitude
Rises 22:54:00 0° 235° (SW) 4,904 13.0 -17.9°
Reaches altitude 10° 22:57:08 10° 234° (SW) 3,928 12.2 -18.5°
Maximum altitude 23:07:15 80° 150° (SSE) 1,706 9.1 -20.3°
Enters shadow 23:13:03 30° 68° (ENE) 2,657 9.7 -21.4°
Drops below altitude 10° 23:17:22 10° 65° (ENE) 3,922 - -22.1°
Sets 23:20:30 0° 65° (ENE) 4,897 - -22.7°
